Location: New Canada
(47.1017°N, 68.5042°W)
Time: 21:45:52
(UTC+00:00)

Oscar 19 - Visible Passes

Search period start: 22 March 2023 00:00
Search period end: 01 April 2023 00:00
Orbit: 772 x 790 km, 98.8° (Epoch: 21 March)

Date Brightness Start Highest point End Pass type
(mag) Time Alt. Az. Time Alt. Az. Time Alt. Az.
22 Mar 11.5 08:20:26 10° NNE 08:25:24 48° E 08:30:22 10° S visible
22 Mar 11.7 10:00:12 10° N 10:04:26 27° WNW 10:08:39 10° WSW visible
23 Mar 12.6 07:48:47 10° NE 07:53:01 25° E 07:57:15 10° SSE visible
23 Mar 10.9 09:27:36 10° N 09:32:30 47° WNW 09:37:25 10° SW visible
24 Mar 13.3 07:18:02 10° ENE 07:20:29 13° E 07:22:56 10° ESE visible
24 Mar 10.6 08:55:17 10° NNE 09:00:27 87° WNW 09:05:36 10° SSW visible
25 Mar 11.4 08:23:13 10° NNE 08:28:13 50° E 08:33:13 10° S visible
26 Mar 12.5 07:51:32 10° NE 07:55:52 27° E 08:00:10 10° SSE visible
26 Mar 11.0 09:30:26 10° N 09:35:19 45° WNW 09:40:11 10° SW visible
27 Mar 13.3 07:20:39 10° ENE 07:23:20 14° E 07:26:00 10° ESE visible
27 Mar 10.6 08:58:05 10° NNE 09:03:15 83° WNW 09:08:24 10° SSW visible
28 Mar 11.4 08:26:00 10° NNE 08:31:03 52° E 08:36:04 10° S visible
29 Mar 12.5 07:54:17 10° NE 07:58:41 28° E 08:03:05 10° SSE visible
29 Mar 11.1 09:33:15 10° N 09:38:06 43° WNW 09:42:57 10° SW visible
30 Mar 13.3 07:23:18 10° NE 07:26:10 15° E 07:29:02 10° ESE visible
30 Mar 10.6 09:00:53 10° NNE 09:06:03 80° WNW 09:11:13 10° SSW visible
31 Mar 11.3 08:28:47 10° NNE 08:33:51 55° E 08:38:55 10° S visible
